Miscellaneous Local Product
Issued by NWS Hastings, NE

Home | Current Version | Previous Version | Graphics & Text | Print | Product List | Glossary On
Versions: 1 2 3 4 5 6 7 8 9 10 11 12 13 14 15 16 17 18 19 20 21 22 23 24 25 26 27 28 29 30 31 32 33 34 35 36 37 38 39 40 41 42 43 44 45 46 47 48 49 50
000
AXUS43 KGID 231302
MISGRI

GID CWA HOURLY WEATHER ROUNDUP
NATIONAL WEATHER SERVICE HASTINGS NE
800 AM CDT FRI JUN 23 2017

NOTE: "FAIR" INDICATES FEW OR NO CLOUDS BELOW 12,000 FEET WITH NO
SIGNIFICANT WEATHER AND/OR OBSTRUCTIONS TO VISIBILITY.

...SOUTH CENTRAL NEBRASKA...

CITY           SKY/WX    TMP DP  RH WIND       PRES   REMARKS
GRAND ISLAND   CLOUDY    64  42  44 N15       30.03R
HASTINGS       CLOUDY    64  43  46 N16G23    30.05R
KEARNEY        CLOUDY    63  39  42 N17G26    30.05R
ORD            LGT RAIN  59  39  47 NW21G28   30.06R
YORK           CLOUDY    64  48  55 N15G21    29.97R
AURORA         CLOUDY    64  43  47 N14       30.01R
LEXINGTON      CLOUDY    59  44  57 N16G22    30.10R
HOLDREGE       CLOUDY    60  46  59 N12G22    30.05R
HEBRON         CLOUDY    67  54  63 N13       29.99R

...NEBRASKA PANHANDLE...

CITY           SKY/WX    TMP DP  RH WIND       PRES   REMARKS
CHADRON        MOSUNNY   55  42  61 W9        30.22R
ALLIANCE       LGT RAIN  50  44  80 N5        30.22F
SCOTTSBLUFF    CLOUDY    54  38  54 W6        30.25F
SIDNEY         CLOUDY    52  42  69 N15       30.25F

...WESTERN AND NORTH CENTRAL NEBRASKA...

CITY           SKY/WX    TMP DP  RH WIND       PRES   REMARKS
VALENTINE      CLOUDY    57  41  55 W13       30.17S
AINSWORTH      CLOUDY    55  46  72 NW15G21   30.16R
ONEILL         CLOUDY    58  47  67 NW20G29   30.09R
BROKEN BOW     CLOUDY    61  39  44 N24G36    30.10R
IMPERIAL       CLOUDY    56  46  69 N16G28    30.18R
NORTH PLATTE   CLOUDY    61  39  44 N23G32    30.16R
MCCOOK         CLOUDY    60  47  61 N20G28    30.11R

...EASTERN NEBRASKA...

CITY           SKY/WX    TMP DP  RH WIND       PRES   REMARKS
NORFOLK        CLOUDY    61  43  51 NW16      29.99R
SO SIOUX CITY  CLOUDY    61  48  62 NW18      29.95R
TEKAMAH        PTSUNNY   65  46  50 N14       29.94R
COLUMBUS       CLOUDY    64  43  46 N13G24    29.98R
ALBION         CLOUDY    62  41  45 N22G31    29.99S
OMAHA EPPLEY   CLOUDY    65  54  67 N8        29.92R
MILLARD        CLOUDY    67  54  64 NW7       29.93F
LINCOLN        CLOUDY    68  52  56 N14       29.97R
NEBRASKA CITY  MOSUNNY   67  62  83 N9        29.91R
BEATRICE       PTSUNNY   67  55  64 N13       29.93R
FALLS CITY     MOSUNNY   68  60  75 N12       29.89R

...NORTHERN KANSAS...

CITY           SKY/WX    TMP DP  RH WIND       PRES   REMARKS
GOODLAND       TSTM      56  54  93 N12       30.19R
HILL CITY      LGT RAIN  60  56  86 NE15      30.03F
NORTON         SUNNY     57  50  77 NW9       30.07
PHILLIPSBURG   SUNNY     63  52  67 N10G22    30.02R
SMITH CENTER   MOSUNNY   61  52  72 NE15G25   29.98F
HAYS           SUNNY     67  54  63 N10       30.02R
RUSSELL        SUNNY     68  56  65 NE10      29.94F
CONCORDIA      PTSUNNY   70  54  56 N9        29.97R
SALINA         SUNNY     74  58  57 N18G31    29.93R
TOPEKA         CLOUDY    72  65  78 N13       29.85R



USA.gov is the U.S. government's official web portal to all federal, state and local government web resources and services.